Terminal Aerodrome Forecast
Issued by NWS

Home | Current Version | Previous Version | Graphics & Text | Print | Product List | Glossary On
Versions: 1 2 3 4 5 6 7 8 9 10 11 12 13 14 15 16 17 18 19 20 21 22 23
634
FTUS43 KTOP 191605 AAB
TAFMHK
TAF AMD
KMHK 191605Z 1916/2012 34011KT P6SM OVC008
     FM191900 36008KT P6SM SCT035 OVC050
     FM200600 04008KT 6SM -SHRA OVC010 WS020/18030KT
     FM201000 36010KT P6SM OVC015=

USA.gov is the U.S. government's official web portal to all federal, state and local government web resources and services.